User: anonymous   Login
Location: Unspecified
(0.0000°N, 0.0000°E)
Time: 11:33:18
(UTC+00:00)
Language:

GOES 2 - Orbit

View from above orbital plane
View from above orbital plane
View from above satellite
View from above satellite

Ground track
Ground track

The orbit data is extracted from the following two-line orbital elements,

1 10061U 77048A   17261.57827319 -.00000302 +00000-0 +00000-0 0  9999
2 10061 013.1503 326.5058 0016530 315.7896 043.4252 00.99398033091774
Epoch (UTC): 18 September 2017 13:52:42
Eccentricity: 0.0016530
inclination: 13.1503°
perigee height: 35963 km
apogee height: 36103 km
right ascension of ascending node: 326.5058°
argument of perigee: 315.7896°
revolutions per day: 0.99398033
mean anomaly at epoch: 43.4252°
orbit number at epoch: 9177

The dashed part of the orbit path shows where the satellite is in the earth's shadow,  

DLR